Regional Weather Roundup
Issued by NWS

Home | Current Version | Previous Version | Graphics & Text | Print | Product List | Glossary On
Versions: 1 2 3 4 5 6 7 8 9 10 11 12 13 14 15 16 17 18 19 20 21 22 23 24 25 26 27 28 29 30 31 32 33 34 35 36 37 38 39 40 41 42 43 44 45 46 47 48 49 50
000
ASUS43 KBIS 211010
RWRND

NORTH DAKOTA REGIONAL WEATHER ROUNDUP
NATIONAL WEATHER SERVICE BISMARCK ND
500 AM CDT SUN SEP 21 2014

NOTE: "FAIR" INDICATES FEW OR NO CLOUDS BELOW 12,000 FEET WITH NO
SIGNIFICANT WEATHER AND/OR OBSTRUCTIONS TO VISIBILITY.


NDZ001>003-009>011-017-211100-
NORTHWEST NORTH DAKOTA

CITY           SKY/WX    TMP DP  RH WIND       PRES   REMARKS
WILLISTON      CLEAR     41  35  79 SW7       30.24R
MINOT          CLEAR     50  40  68 W14       30.18R
MINOT AFB      CLEAR     46  43  89 W12       30.17R
$$

NDZ018>021-031>035-040>046-211100-
SOUTHWEST NORTH DAKOTA

CITY           SKY/WX    TMP DP  RH WIND       PRES   REMARKS
BISMARCK       CLEAR     49  42  77 NW10      30.20R
DICKINSON      CLEAR     42  35  76 W7        30.25R
GARRISON         N/A     46  41  82 NW10      30.20R
HETTINGER ARPT CLEAR     39  32  76 NW5       30.28R
$$

NDZ004>008-012>016-024-026-027-054-211100-
NORTHEAST NORTH DAKOTA

CITY           SKY/WX    TMP DP  RH WIND       PRES   REMARKS
GRAND FORKS    CLEAR     49  47  93 NW7       30.07R
GRND FRKS AFB  CLEAR     51  51  99 NW9       30.08R
DEVILS LAKE    CLEAR     46  39  76 NW6       30.11R
$$

NDZ022-023-025-028>030-036>039-047>053-211100-
SOUTHEAST NORTH DAKOTA

CITY           SKY/WX    TMP DP  RH WIND       PRES   REMARKS
FARGO          CLEAR     51  47  86 NW9       30.07R
JAMESTOWN      CLEAR     50  45  83 NW9       30.12R
$$



USA.gov is the U.S. government's official web portal to all federal, state and local government web resources and services.